SCP
0 0 0 1 1 1 1 1 1 0 0 0 0 0 0 0 0 0 0 0 0 0 0 0 0 0 0 0 0 0 0 0
0 0 0 1 1 1 0 1 1 1 1 1 0 0 0 0 0 0 0 0 0 0 0 0 0 0 0 0 0 0 0 0
0 0 0 1 1 1 1 1 1 1 1 1 1 1 0 0 0 0 0 0 0 0 0 0 0 0 0 0 0 0 0 0
0 0 0 1 1 1 1 1 2 2 2 2 2 1 1 0 0 0 0 0 0 0 0 0 0 0 0 0 0 0 0 0
0 0 0 1 1 1 2 2 2 2 2 2 1 0 0 0 0 0 0 0 0 0 0 0 0 0 0 0 0 0 0 0
0 0 0 0 1 1 1 1 1 1 1 1 0 0 0 0 0 0 0 0 0 0 0 0 0 -0 0 0 0 0 0 0
0 0 0 0 0 0 0 0 0 0 0 0 0 0 0 0 0 0 0 0 0 0 0 0 0 0 -0 0 0 0 0 0
0 0 0 0 0 0 0 0 0 0 0 0 0 0 0 0 0 0 0 0 0 0 0 0 0 0 0 0 0 0 0 0
0 0 0 0 0 0 0 0 0 0 0 0 0 0 0 0 0 0 0 0 0 0 0 0 0 0 0 0 0 0 0 0
0 0 0 0 0 0 0 0 0 0 0 0 0 0 0 0 0 0 0 0 0 0 0 0 0 0 0 0 0 0 0 0
0 0 0 0 0 0 0 0 0 0 0 0 0 0 0 0 0 0 0 0 0 0 0 0 0 0 0 0 0 0 0 0
0 0 0 0 0 0 0 0 0 0 0 0 0 0 0 0 0 0 0 0 0 0 0 0 0 0 0 0 0 0 0 0
0 0 0 0 0 0 0 0 0 0 0 0 0 0 0 0 0 0 0 0 0 0 0 0 0 0 0 0 0 0 0 0
0 0 0 0 0 0 0 0 0 0 0 0 0 0 0 0 0 0 0 0 0 0 0 0 0 0 0 0 0 0 0 0
0 0 0 0 0 0 0 0 0 0 0 0 0 0 0 0 0 0 0 0 0 0 0 0 0 0 0 -0 0 0 0 0
0 0 0 0 0 0 0 0 0 0 0 0 0 0 0 0 0 0 0 0 0 0 0 0 0 -0 0 0 0 0 0 0
0 0 0 0 0 0 0 0 0 0 0 0 0 0 0 0 0 0 0 0 0 0 -0 -0 -0 0 0 0 0 0 0 0
0 0 0 0 0 0 0 0 0 0 0 0 0 0 0 0 0 0 0 0 0 0 -0 -0 0 0 0 0 0 0 0 0
0 0 0 0 0 0 0 0 0 0 0 0 0 0 0 0 0 0 0 0 0 0 -0 -0 0 0 0 0 0 0 0 0
Wind_Speed_500mb
21 26 32 28 29 25 25 19 15 14 16 22 24 20 28 33 36 36 36 35 35 33 28 28 29 31 31 28 26 30 30 30
15 20 25 26 29 27 25 23 18 14 20 25 24 20 29 33 37 36 39 38 39 38 36 35 34 39 35 32 30 31 33 32
11 13 26 30 31 28 26 24 21 20 27 31 26 20 22 22 24 30 39 39 39 39 38 37 37 37 36 39 36 36 34 34
19 25 27 36 36 32 28 26 26 28 31 33 24 23 20 18 21 25 28 36 42 45 43 43 43 44 44 42 40 40 38 35
30 34 35 38 42 38 32 29 32 31 34 35 30 29 27 25 23 24 28 31 36 39 43 47 47 47 47 45 44 40 40 36
45 42 44 45 47 42 36 32 32 32 39 36 34 34 32 29 26 26 27 25 29 32 32 34 34 41 49 52 49 44 42 39
57 50 52 51 51 45 38 34 32 37 33 30 30 33 34 29 25 23 22 21 23 24 23 29 32 36 39 47 48 48 45 45
58 55 57 57 51 46 40 32 36 32 23 21 24 28 30 30 27 28 23 18 19 19 25 29 35 40 33 43 43 48 46 44
65 60 59 57 53 45 37 37 35 26 19 18 17 20 25 30 30 27 26 23 21 22 24 25 28 35 37 37 41 43 47 42
71 66 61 57 53 44 38 38 29 19 20 21 21 22 23 27 30 30 28 27 24 24 26 26 28 29 33 34 39 42 44 38
77 68 60 56 50 45 37 33 22 19 20 21 22 23 26 28 31 35 32 31 31 27 27 27 26 28 28 32 35 38 38 36
80 67 59 56 51 41 34 25 19 18 20 21 20 21 25 30 33 33 35 33 30 28 27 26 23 27 29 32 32 33 35 39
79 67 57 55 47 36 28 20 18 19 20 20 20 21 23 25 30 32 31 28 25 26 25 26 24 28 30 32 34 32 33 33
73 63 59 55 41 29 21 18 18 18 18 21 21 24 24 26 26 29 28 26 28 27 24 26 27 30 29 34 33 29 30 31
61 60 61 48 34 24 19 17 15 15 20 22 22 25 22 25 25 25 23 25 26 26 24 25 26 29 26 33 29 27 30 26
60 69 60 43 30 22 17 15 13 16 20 19 20 24 20 28 25 19 17 19 20 21 16 16 30 27 29 35 28 28 24 20
69 68 51 35 26 20 16 12 11 17 19 19 21 19 25 20 10 9 15 15 15 16 17 27 28 28 29 32 31 28 17 19
72 62 42 30 23 18 14 9 13 20 22 16 11 13 13 6 3 7 10 11 13 17 19 27 27 24 31 35 30 18 12 10
64 48 34 26 18 17 11 6 14 20 12 7 10 8 8 3 6 9 8 6 12 17 21 27 25 24 27 31 30 32 17 21
Wind_Direction_500mb
182 193 197 206 212 217 226 236 261 280 297 309 302 284 261 259 259 261 266 270 260 266 259 257 256 266 263 261 259 256 247 255
195 201 208 211 217 220 227 235 254 283 303 308 304 278 262 263 267 262 264 262 266 263 257 261 255 253 256 262 263 260 254 246
227 227 221 216 219 221 230 240 260 284 298 302 298 276 265 268 272 271 261 262 261 262 263 258 258 258 253 252 252 255 255 248
225 225 228 222 220 220 232 244 266 282 293 295 280 265 260 256 265 266 262 259 258 255 256 257 255 250 251 251 247 246 248 250
228 225 229 226 223 226 231 248 264 278 288 281 268 263 262 263 272 263 275 267 259 256 248 249 251 250 248 248 246 242 246 249
225 225 225 225 224 228 233 247 258 279 284 274 263 257 259 262 270 277 280 272 261 257 255 251 250 250 248 248 246 244 241 243
227 224 224 222 224 228 234 243 261 279 275 269 262 255 257 257 260 275 274 277 264 256 257 253 246 251 248 244 244 237 236 238
233 228 226 222 224 229 234 247 267 276 276 274 263 258 255 251 260 276 266 269 264 261 252 257 252 248 248 239 237 232 234 237
231 232 227 224 225 227 229 248 271 278 287 285 275 266 263 263 270 269 259 261 278 272 263 264 262 248 245 243 233 231 229 233
234 231 227 226 226 223 230 257 273 284 286 281 275 272 276 272 269 262 260 259 269 272 263 264 264 255 244 242 229 227 226 233
235 231 229 227 220 221 238 259 274 285 286 290 281 274 277 274 267 261 260 261 263 266 262 262 268 246 239 237 227 221 222 230
236 231 229 224 214 221 245 260 268 285 287 290 289 281 283 279 270 260 258 259 253 258 263 264 263 236 236 229 221 215 224 216
234 230 226 215 211 228 246 256 269 283 290 285 287 288 292 287 273 262 257 250 247 252 263 262 252 230 230 221 207 212 214 210
235 227 218 205 212 229 240 253 268 283 291 286 291 291 290 293 283 266 254 244 241 251 261 261 248 222 223 205 199 209 206 200
234 221 207 203 209 220 230 246 261 285 297 293 289 294 293 303 290 265 247 238 237 246 258 261 220 203 205 195 194 202 198 206
221 202 194 198 207 214 223 236 267 297 302 297 298 288 297 308 296 254 224 223 235 243 254 215 181 190 195 195 199 195 199 214
203 190 187 194 205 207 212 244 289 310 315 306 302 288 309 306 285 203 204 222 231 230 215 186 186 187 188 185 190 184 182 190
185 178 182 194 201 200 215 256 313 321 320 314 301 312 321 312 159 179 208 234 219 206 195 185 183 186 178 179 188 181 153 182
176 174 180 190 190 194 213 269 322 330 345 347 328 332 340 293 225 228 200 204 193 189 186 187 182 182 185 188 189 202 192 184
Wind_Speed_850mb
21 26 32 28 29 25 25 19 15 14 16 22 24 20 28 33 36 36 36 35 35 33 28 28 29 31 31 28 26 30 30 30
15 20 25 26 29 27 25 23 18 14 20 25 24 20 29 33 37 36 39 38 39 38 36 35 34 39 35 32 30 31 33 32
11 13 26 30 31 28 26 24 21 20 27 31 26 20 22 22 24 30 39 39 39 39 38 37 37 37 36 39 36 36 34 34
19 25 27 36 36 32 28 26 26 28 31 33 24 23 20 18 21 25 28 36 42 45 43 43 43 44 44 42 40 40 38 35
30 34 35 38 42 38 32 29 32 31 34 35 30 29 27 25 23 24 28 31 36 39 43 47 47 47 47 45 44 40 40 36
45 42 44 45 47 42 36 32 32 32 39 36 34 34 32 29 26 26 27 25 29 32 32 34 34 41 49 52 49 44 42 39
57 50 52 51 51 45 38 34 32 37 33 30 30 33 34 29 25 23 22 21 23 24 23 29 32 36 39 47 48 48 45 45
58 55 57 57 51 46 40 32 36 32 23 21 24 28 30 30 27 28 23 18 19 19 25 29 35 40 33 43 43 48 46 44
65 60 59 57 53 45 37 37 35 26 19 18 17 20 25 30 30 27 26 23 21 22 24 25 28 35 37 37 41 43 47 42
71 66 61 57 53 44 38 38 29 19 20 21 21 22 23 27 30 30 28 27 24 24 26 26 28 29 33 34 39 42 44 38
77 68 60 56 50 45 37 33 22 19 20 21 22 23 26 28 31 35 32 31 31 27 27 27 26 28 28 32 35 38 38 36
80 67 59 56 51 41 34 25 19 18 20 21 20 21 25 30 33 33 35 33 30 28 27 26 23 27 29 32 32 33 35 39
79 67 57 55 47 36 28 20 18 19 20 20 20 21 23 25 30 32 31 28 25 26 25 26 24 28 30 32 34 32 33 33
73 63 59 55 41 29 21 18 18 18 18 21 21 24 24 26 26 29 28 26 28 27 24 26 27 30 29 34 33 29 30 31
61 60 61 48 34 24 19 17 15 15 20 22 22 25 22 25 25 25 23 25 26 26 24 25 26 29 26 33 29 27 30 26
60 69 60 43 30 22 17 15 13 16 20 19 20 24 20 28 25 19 17 19 20 21 16 16 30 27 29 35 28 28 24 20
69 68 51 35 26 20 16 12 11 17 19 19 21 19 25 20 10 9 15 15 15 16 17 27 28 28 29 32 31 28 17 19
72 62 42 30 23 18 14 9 13 20 22 16 11 13 13 6 3 7 10 11 13 17 19 27 27 24 31 35 30 18 12 10
64 48 34 26 18 17 11 6 14 20 12 7 10 8 8 3 6 9 8 6 12 17 21 27 25 24 27 31 30 32 17 21
Wind_Direction_850mb
182 193 197 206 212 217 226 236 261 280 297 309 302 284 261 259 259 261 266 270 260 266 259 257 256 266 263 261 259 256 247 255
195 201 208 211 217 220 227 235 254 283 303 308 304 278 262 263 267 262 264 262 266 263 257 261 255 253 256 262 263 260 254 246
227 227 221 216 219 221 230 240 260 284 298 302 298 276 265 268 272 271 261 262 261 262 263 258 258 258 253 252 252 255 255 248
225 225 228 222 220 220 232 244 266 282 293 295 280 265 260 256 265 266 262 259 258 255 256 257 255 250 251 251 247 246 248 250
228 225 229 226 223 226 231 248 264 278 288 281 268 263 262 263 272 263 275 267 259 256 248 249 251 250 248 248 246 242 246 249
225 225 225 225 224 228 233 247 258 279 284 274 263 257 259 262 270 277 280 272 261 257 255 251 250 250 248 248 246 244 241 243
227 224 224 222 224 228 234 243 261 279 275 269 262 255 257 257 260 275 274 277 264 256 257 253 246 251 248 244 244 237 236 238
233 228 226 222 224 229 234 247 267 276 276 274 263 258 255 251 260 276 266 269 264 261 252 257 252 248 248 239 237 232 234 237
231 232 227 224 225 227 229 248 271 278 287 285 275 266 263 263 270 269 259 261 278 272 263 264 262 248 245 243 233 231 229 233
234 231 227 226 226 223 230 257 273 284 286 281 275 272 276 272 269 262 260 259 269 272 263 264 264 255 244 242 229 227 226 233
235 231 229 227 220 221 238 259 274 285 286 290 281 274 277 274 267 261 260 261 263 266 262 262 268 246 239 237 227 221 222 230
236 231 229 224 214 221 245 260 268 285 287 290 289 281 283 279 270 260 258 259 253 258 263 264 263 236 236 229 221 215 224 216
234 230 226 215 211 228 246 256 269 283 290 285 287 288 292 287 273 262 257 250 247 252 263 262 252 230 230 221 207 212 214 210
235 227 218 205 212 229 240 253 268 283 291 286 291 291 290 293 283 266 254 244 241 251 261 261 248 222 223 205 199 209 206 200
234 221 207 203 209 220 230 246 261 285 297 293 289 294 293 303 290 265 247 238 237 246 258 261 220 203 205 195 194 202 198 206
221 202 194 198 207 214 223 236 267 297 302 297 298 288 297 308 296 254 224 223 235 243 254 215 181 190 195 195 199 195 199 214
203 190 187 194 205 207 212 244 289 310 315 306 302 288 309 306 285 203 204 222 231 230 215 186 186 187 188 185 190 184 182 190
185 178 182 194 201 200 215 256 313 321 320 314 301 312 321 312 159 179 208 234 219 206 195 185 183 186 178 179 188 181 153 182
176 174 180 190 190 194 213 269 322 330 345 347 328 332 340 293 225 228 200 204 193 189 186 187 182 182 185 188 189 202 192 184